• Join FlightAware (Why Join?)
  • Login
  • US Flag 
10:27AM EDT


 

Airport Tracker/Info


-or-


 

Live Flight TrackerFlight Track Log ✈ SKQ45 ✈ 17-Apr-2013 ✈ KSTL - KOSU

Flight Track Log - Related Links

Times and Time Zones

All times are in EDT time to prevent confusion due to time zone crossing. See the SKQ45 flight status page for this flight to view local times or setup timezone preferences in your user account.

Time Position Orientation Groundspeed Altitude Reporting Facility
EDT Latitude Longitude Course Direction KTS MPH feet Rate Location/Type
12:19AM 38.7458 -90.2461 41° Northeast 164 189 2,300  Level FAA TRACON SMA TRACON (SMA)
12:20AM 38.7572 -90.2258 54° Northeast 180 207 2,800 1,500 Climbing FAA TRACON SMA TRACON (SMA)
12:20AM 38.7658 -90.2083 58° Northeast 185 213 3,300 1,200 Climbing FAA TRACON SMA TRACON (SMA)
12:20AM 38.7744 -90.1900 59° Northeast 194 223 3,600 1,020 Climbing FAA TRACON SMA TRACON (SMA)
12:21AM 38.7833 -90.1647 66° East 203 234 4,000 1,020 Climbing FAA TRACON SMA TRACON (SMA)
12:21AM 38.7872 -90.1431 77° East 202 232 4,300 1,020 Climbing FAA TRACON SMA TRACON (SMA)
12:21AM 38.7892 -90.1219 83° East 198 228 4,700 1,200 Climbing FAA TRACON SMA TRACON (SMA)
12:22AM 38.7922 -90.0944 82° East 200 230 5,100 900 Climbing FAA TRACON SMA TRACON (SMA)
12:22AM 38.7961 -90.0722 77° East 205 236 5,300 720 Climbing FAA TRACON SMA TRACON (SMA)
12:22AM 38.7994 -90.0494 79° East 212 244 5,600 1,020 Climbing FAA TRACON SMA TRACON (SMA)
12:23AM 38.8058 -90.0214 74° East 215 247 6,000 960 Climbing FAA TRACON SMA TRACON (SMA)
12:23AM 38.8175 -89.9761 72° East 216 249 6,600 1,080 Climbing FAA TRACON SMA TRACON (SMA)
12:24AM 38.8239 -89.9483 74° East 212 244 7,100 1,200 Climbing FAA TRACON SMA TRACON (SMA)
12:24AM 38.8286 -89.9258 75° East 212 244 7,400 900 Climbing FAA TRACON SMA TRACON (SMA)
12:24AM 38.8333 -89.9028 75° East 214 246 7,700 1,020 Climbing FAA TRACON SMA TRACON (SMA)
12:25AM 39.0553 -90.0086 41° Northeast  Level FlightAware Approximate
12:25AM 38.8392 -89.8744 75° East 214 246 8,100  Level FAA TRACON SMA TRACON (SMA)
12:25AM 38.8433 -89.8517 77° East 214 246 8,500 1,020 Climbing FAA TRACON SMA TRACON (SMA)
12:25AM 38.8486 -89.8286 74° East 217 250 8,800 1,020 Climbing FAA TRACON SMA TRACON (SMA)
12:26AM 38.8553 -89.8000 73° East 219 252 9,200 1,020 Climbing FAA TRACON SMA TRACON (SMA)
12:26AM 38.8600 -89.7767 75° East 219 252 9,500 900 Climbing FAA TRACON SMA TRACON (SMA)
12:26AM 38.8642 -89.7528 77° East 222 255 9,800 900 Climbing FAA TRACON SMA TRACON (SMA)
12:27AM 38.8711 -89.7231 73° East 225 259 10,100 900 Climbing FAA TRACON SMA TRACON (SMA)
12:27AM 38.8767 -89.6992 73° East 227 261 10,400 900 Climbing FAA TRACON SMA TRACON (SMA)
12:27AM 38.8817 -89.6750 75° East 228 262 10,700 600 Climbing FAA TRACON SMA TRACON (SMA)
12:28AM 38.8889 -89.6439 73° East 234 269 10,800 300 Climbing FAA TRACON SMA TRACON (SMA)
12:28AM 38.8944 -89.6175 75° East 245 282 10,900 120 Climbing FAA TRACON SMA TRACON (SMA)
12:28AM 38.8992 -89.5897 78° East 255 293 10,900  Level FAA TRACON SMA TRACON (SMA)
12:29AM 38.9083 -89.5553 71° East 265 305 10,900  Level FAA TRACON SMA TRACON (SMA)
12:29AM 38.9144 -89.5261 75° East 272 313 10,900  Level FAA TRACON SMA TRACON (SMA)
12:29AM 38.9206 -89.4967 75° East 277 319 10,900 420 Level FAA TRACON SMA TRACON (SMA)
12:30AM 38.9283 -89.4606 75° East 274 315 11,200 1,020 Climbing FAA TRACON SMA TRACON (SMA)
12:30AM 38.9353 -89.4333 72° East 262 302 11,600 1,200 Climbing FAA TRACON SMA TRACON (SMA)
12:30AM 38.9406 -89.4067 76° East 253 291 12,000 1,320 Climbing FAA TRACON SMA TRACON (SMA)
12:31AM 38.9475 -89.3744 75° East 244 281 12,500 1,200 Climbing FAA TRACON SMA TRACON (SMA)
12:31AM 38.9528 -89.3492 75° East 238 274 12,800 900 Climbing FAA TRACON SMA TRACON (SMA)
12:31AM 38.9592 -89.3244 72° East 238 274 13,100 1,200 Climbing FAA TRACON SMA TRACON (SMA)
12:32AM 38.9661 -89.2925 74° East 240 276 13,600 1,200 Climbing FAA TRACON SMA TRACON (SMA)
12:32AM 38.9714 -89.2672 75° East 241 277 13,900 900 Climbing FAA TRACON SMA TRACON (SMA)
12:32AM 38.9769 -89.2411 75° East 243 280 14,200 1,020 Climbing FAA TRACON SMA TRACON (SMA)
12:33AM 38.9839 -89.2086 75° East 245 282 14,600 1,320 Climbing FAA TRACON SMA TRACON (SMA)
12:33AM 38.9894 -89.1828 75° East 247 284 15,100 1,020 Climbing FAA TRACON SMA TRACON (SMA)
12:33AM 38.9947 -89.1564 76° East 246 283 15,300 900 Climbing FAA TRACON SMA TRACON (SMA)
12:34AM 39.0019 -89.1231 74° East 249 287 15,700 720 Climbing FAA TRACON SMA TRACON (SMA)
12:34AM 39.0047 -89.1100 75° East 250 288 15,800 120 Climbing FAA TRACON SMA TRACON (SMA)
12:34AM 39.0047 -89.1100 360° North 250 288 15,800 960 Level FAA TRACON SMA TRACON (SMA)
12:35AM 39.0211 -89.0778 57° Northeast 255 293 16,700 1,200 Climbing Kansas City Center
12:36AM 39.0389 -88.9897 75° East 254 292 17,700 900 Climbing Kansas City Center
12:37AM 39.0578 -88.9067 74° East 253 291 18,500 660 Climbing Kansas City Center
12:38AM 39.0769 -88.8158 75° East 261 300 19,100 240 Climbing Kansas City Center
12:39AM 39.0953 -88.7206 76° East 271 312 19,000 -60 Descending Kansas City Center
12:40AM 39.1161 -88.6183 75° East 290 334 19,000  Level Kansas City Center
12:41AM 39.1350 -88.5222 76° East 295 339 19,000  Level Kansas City Center
12:42AM 39.1542 -88.4197 76° East 294 338 19,000  Level Kansas City Center
12:43AM 39.1767 -88.3158 74° East 297 342 19,000  Level Kansas City Center
12:44AM 39.1958 -88.2139 76° East 294 338 19,000  Level Kansas City Center
12:45AM 39.2156 -88.1117 76° East 293 337 19,000  Level Kansas City Center
12:46AM 39.2353 -88.0094 76° East 292 336 19,000  Level Kansas City Center
12:47AM 39.2556 -87.9092 75° East 290 334 19,000  Level Kansas City Center
12:48AM 39.2739 -87.8067 77° East 292 336 19,000  Level Indianapolis Center
12:49AM 39.2939 -87.7031 76° East 295 339 19,000  Level Indianapolis Center
12:50AM 39.3131 -87.6014 76° East 292 336 19,000  Level Indianapolis Center
12:51AM 39.3325 -87.4989 76° East 292 336 19,000  Level Indianapolis Center
12:52AM 39.3519 -87.3967 76° East 292 336 19,000  Level Indianapolis Center
12:53AM 39.3711 -87.2919 77° East 295 339 19,000  Level Indianapolis Center
12:54AM 39.3906 -87.1889 76° East 297 342 19,000  Level Indianapolis Center
12:55AM 39.4100 -87.0847 76° East 296 341 19,000  Level Indianapolis Center
12:56AM 39.4297 -86.9808 76° East 296 341 19,000  Level Indianapolis Center
12:57AM 39.4483 -86.8758 77° East 297 342 19,000  Level Indianapolis Center
12:58AM 39.4681 -86.7714 76° East 297 342 19,000  Level Indianapolis Center
12:59AM 39.4875 -86.6664 76° East 297 342 19,000  Level Indianapolis Center
01:00AM 39.5064 -86.5608 77° East 299 344 19,000  Level Indianapolis Center
01:01AM 39.5253 -86.4561 77° East 298 343 19,000  Level Indianapolis Center
01:02AM 39.5444 -86.3497 77° East 300 345 19,000  Level Indianapolis Center
01:03AM 39.5628 -86.2444 77° East 300 345 19,000  Level Indianapolis Center
01:04AM 39.5814 -86.1386 77° East 300 345 19,000  Level Indianapolis Center
01:05AM 39.6000 -86.0322 77° East 301 346 19,000  Level Indianapolis Center
01:06AM 39.6178 -85.9261 78° East 301 346 19,000  Level Indianapolis Center
01:07AM 39.6378 -85.8192 76° East 303 349 19,000  Level Indianapolis Center
01:08AM 39.6556 -85.7136 78° East 300 345 19,000  Level Indianapolis Center
01:09AM 39.6750 -85.6081 77° East 300 345 19,000  Level Indianapolis Center
01:10AM 39.6911 -85.5033 79° East 299 344 19,000  Level Indianapolis Center
01:11AM 39.7100 -85.3961 77° East 300 345 19,000  Level Indianapolis Center
01:12AM 39.7278 -85.2894 78° East 301 346 19,000  Level Indianapolis Center
01:13AM 39.7467 -85.1836 77° East 300 345 19,000  Level Indianapolis Center
01:14AM 39.7639 -85.0781 78° East 298 343 19,000  Level Indianapolis Center
01:15AM 39.7814 -84.9711 78° East 300 345 19,000 -300 Level Indianapolis Center
01:16AM 39.7986 -84.8628 78° East 304 350 18,500 -840 Descending Indianapolis Center
01:17AM 39.8186 -84.7494 77° East 318 366 17,400 -1,080 Descending Indianapolis Center
01:18AM 39.8381 -84.6367 77° East 315 362 16,400 -1,140 Descending Indianapolis Center
01:19AM 39.8553 -84.5269 78° East 307 353 15,200 -1,200 Descending Indianapolis Center
01:20AM 39.8642 -84.4656 79° East 302 348 14,500 -1,200 Descending Indianapolis Center
01:20AM 39.8736 -84.4194 75° East 301 346 14,000 -1,020 Descending Indianapolis Center
01:21AM 39.8864 -84.3311 79° East 295 339 13,100 -1,080 Descending Indianapolis Center
01:22AM 39.9036 -84.2278 78° East 291 335 11,900 -1,140 Descending Indianapolis Center
01:23AM 39.9189 -84.1281 79° East 279 321 10,900 -840 Descending Indianapolis Center
01:24AM 39.9336 -84.0364 78° East 262 302 10,300 -540 Descending Indianapolis Center
01:25AM 39.9475 -83.9472 78° East 252 290 9,900 -240 Descending Indianapolis Center
01:26AM 39.9606 -83.8636 78° East 238 274 9,900 -420 Level Indianapolis Center
01:27AM 39.9731 -83.7786 79° East 237 273 9,100 -1,020 Descending Indianapolis Center
01:28AM 39.9872 -83.6858 79° East 253 291 7,900 -1,200 Descending Indianapolis Center
01:29AM 40.0019 -83.5933 78° East 256 295 6,700 -1,200 Descending Indianapolis Center
01:30AM 40.0156 -83.5017 79° East 253 291 5,500 -1,200 Descending Indianapolis Center
01:31AM 40.0289 -83.4125 79° East 248 285 4,400 -840 Descending Indianapolis Center
01:32AM 40.0419 -83.3231 79° East 245 282 3,900 -540 Descending Indianapolis Center
01:34AM 40.0537 -83.1942 78° East  Level FlightAware Approximate
01:41AM 40.0667 -83.0667 90° East  Level FlightAware Approximate
01:42AM 40.0798 -83.0732 90° East  Level Estimated